EHI
3 1 1 2 1 0 2 4 5 5 4 3 3 3 3 3 3 3 4 6 6 6 6 6 6 6 6 6 4 2 1 0 0 1 0 0 0 0 0 0 0 0 0
3 2 1 1 1 1 2 4 5 5 4 3 3 3 3 3 3 3 4 5 6 6 6 6 6 6 6 6 5 4 3 2 2 2 1 0 0 0 0 0 0 0 0
3 2 1 0 1 1 2 3 4 4 3 3 3 3 3 3 3 4 4 5 6 6 6 6 6 6 6 6 5 4 4 5 5 3 1 1 1 1 0 0 0 0 0
3 2 1 0 0 1 2 2 3 3 3 3 3 4 3 3 4 4 4 5 6 6 6 6 6 6 6 6 5 4 5 5 5 4 1 1 2 2 1 1 1 1 1
3 2 1 1 1 0 1 2 2 3 2 2 3 3 3 3 3 4 4 5 5 6 5 5 6 6 6 6 5 4 4 4 5 5 3 2 2 3 3 2 2 2 2
2 1 1 2 3 2 1 2 2 3 2 2 1 1 1 2 3 3 3 3 3 3 2 3 5 6 6 6 6 6 5 5 6 8 9 7 5 4 4 3 3 3 3
1 1 1 3 4 4 3 3 3 3 3 2 0 0 0 1 2 3 2 1 1 1 1 1 3 5 5 6 7 8 7 7 9 12 13 12 8 6 5 4 3 3 3
1 2 2 3 4 4 3 4 4 4 3 2 1 1 0 0 1 2 2 1 1 1 2 1 2 4 4 5 6 7 8 8 8 11 12 11 9 8 8 6 4 3 3
5 5 4 4 4 3 3 4 5 4 3 3 3 3 2 2 2 1 1 1 0 1 1 1 1 3 4 4 5 5 6 6 6 7 9 9 9 9 9 7 5 4 3
9 9 8 6 5 4 3 5 6 6 5 5 5 6 5 4 3 2 1 0 0 0 0 0 1 2 4 5 5 4 4 4 5 6 7 8 8 8 7 5 4 3 2
11 10 9 8 7 6 5 7 8 7 7 6 6 6 7 6 5 4 3 2 1 0 1 1 1 2 3 4 5 4 3 3 4 5 6 7 7 6 4 3 2 1 1
9 9 8 8 9 8 7 7 7 6 6 5 5 6 7 6 6 6 5 4 2 1 2 2 1 1 1 3 3 3 3 2 2 3 4 5 5 5 3 2 1 1 1
7 7 7 9 10 9 7 6 4 3 3 3 3 5 6 6 6 6 6 5 3 2 3 2 1 0 1 1 2 2 2 1 0 1 1 2 3 4 3 1 1 1 2
7 7 8 10 11 9 6 4 3 2 2 2 3 4 4 5 5 5 5 5 5 4 3 1 0 1 2 2 2 2 1 0 0 0 0 1 1 2 2 1 0 1 1
7 7 8 10 11 9 6 5 4 3 3 3 3 3 3 3 4 4 4 5 5 5 3 1 0 1 2 2 2 2 1 0 0 0 0 0 0 1 1 1 0 0 0
7 8 8 9 9 8 7 6 5 4 4 4 3 3 3 3 3 3 3 3 5 5 3 1 1 2 3 3 3 3 2 1 1 0 0 0 0 0 0 0 0 0 0
7 8 7 7 7 8 8 7 6 6 5 5 5 4 3 4 4 4 4 4 4 4 3 3 3 5 7 8 7 7 5 4 2 1 0 0 0 0 0 0 0 0 0
6 6 6 6 7 8 8 6 6 6 7 8 8 6 5 5 6 5 5 4 4 4 4 4 4 6 8 9 9 8 7 6 4 2 0 0 0 0 0 0 0 0 0
5 5 5 6 7 7 6 5 4 5 6 8 8 7 6 7 7 6 5 4 3 3 4 4 4 6 8 8 8 7 7 6 5 3 1 0 0 0 0 0 0 0 0
4 4 4 5 6 6 5 4 4 4 5 6 7 6 6 7 7 6 4 3 2 2 3 3 3 5 7 8 8 7 6 6 5 4 2 1 1 0 0 0 0 0 0
3 3 3 4 5 6 4 3 3 4 4 6 6 6 6 6 4 3 2 1 1 1 2 2 2 4 6 7 6 6 5 5 6 5 5 3 2 1 0 0 0 0 0
5 4 3 3 4 5 4 3 3 3 4 5 6 7 8 6 3 2 1 0 0 1 2 2 2 3 4 4 4 4 5 5 6 6 5 4 2 1 1 0 0 0 0
11 9 6 4 4 3 3 2 3 3 3 4 6 8 9 7 5 4 2 0 0 1 1 2 1 1 2 2 3 4 4 5 6 6 4 3 3 2 2 1 0 0 0
18 15 11 7 4 3 1 1 1 3 3 4 7 9 9 8 7 5 4 2 1 1 1 1 1 0 0 1 3 4 4 4 5 5 4 3 3 3 3 2 1 0 0
19 17 14 10 7 3 1 0 1 2 4 5 7 8 8 7 5 4 4 4 4 3 2 1 1 0 0 0 2 3 4 4 3 4 4 4 3 3 3 2 1 0 0
17 16 15 12 9 4 1 0 1 2 4 6 7 8 7 5 3 1 2 5 5 4 3 2 1 0 0 0 1 3 4 4 2 3 5 4 3 3 3 1 0 0 0
Wind_Speed
1 1 1 1 0 1 2 1 1 1 1 2 1 2 2 2 1 1 3 8 7 7 7 7 8 8 8 8 9 9 9 8 8 8 8 8 8 8 9 10 10 10 9
1 0 1 0 0 0 1 0 1 1 1 1 1 1 1 1 1 1 2 5 8 7 6 6 7 7 8 8 8 8 8 8 8 8 8 7 8 8 9 9 9 9 9
1 0 0 0 1 1 1 1 1 1 1 1 1 1 1 1 1 2 2 2 4 8 7 6 6 7 8 8 8 8 8 7 7 7 7 7 8 8 8 8 8 9 8
0 0 0 0 1 0 0 1 1 1 1 1 1 0 1 1 2 2 2 2 2 2 6 7 6 7 7 7 8 8 7 7 7 7 7 8 8 8 8 8 8 9 9
0 0 0 1 1 0 0 1 1 0 0 0 0 1 1 1 1 2 2 2 2 2 2 6 6 6 6 6 6 7 7 8 7 8 8 8 9 9 9 9 8 8 9
1 1 1 0 1 0 0 0 0 0 1 0 1 0 1 1 1 1 2 1 1 2 1 2 4 5 7 6 6 6 7 7 7 7 8 8 8 8 9 9 9 9 9
1 1 1 1 1 1 1 1 1 2 1 0 1 1 1 2 1 1 1 1 1 1 2 2 2 1 4 7 6 5 6 6 6 7 7 7 7 7 8 9 9 10 10
2 2 1 1 1 0 1 1 1 1 1 1 2 2 1 2 2 1 1 2 1 1 2 2 2 2 2 2 4 5 5 5 6 6 7 7 7 7 8 9 9 9 9
1 0 1 1 1 1 1 1 1 2 1 1 1 2 2 1 0 2 2 1 1 1 1 1 2 2 2 1 2 4 4 4 5 5 6 6 6 6 7 8 8 8 8
2 2 2 1 2 1 1 2 1 1 2 2 1 1 2 2 2 1 2 2 2 1 1 1 1 1 2 1 1 1 1 2 3 5 5 5 5 6 7 8 8 8 8
2 2 2 2 2 2 1 1 0 2 2 2 1 1 1 1 3 3 1 1 2 1 1 1 1 1 1 1 1 1 1 1 2 3 4 5 5 6 7 8 8 9 9
2 3 2 2 2 1 1 2 2 2 2 2 2 1 2 2 2 2 2 2 2 1 1 1 1 0 0 0 1 4 2 2 1 1 2 3 4 4 5 6 7 8 8
2 2 2 2 2 1 2 1 1 1 1 2 2 1 2 2 2 2 3 2 3 1 1 2 1 1 1 0 1 2 2 1 1 1 2 2 2 2 2 3 5 6 6
1 1 2 3 2 2 2 1 1 1 1 2 1 1 2 2 2 2 2 3 3 2 2 1 1 1 0 0 2 1 1 2 1 1 1 2 1 1 1 1 2 3 4
2 2 2 2 2 2 1 2 1 1 1 1 1 2 2 1 2 2 2 3 3 3 2 2 1 1 0 0 1 1 0 3 1 1 1 1 1 1 1 1 1 1 2
1 2 2 2 2 2 2 2 2 1 1 1 1 1 2 2 1 1 2 2 3 4 3 1 1 0 0 1 1 1 0 3 2 1 0 0 1 1 1 1 1 1 1
3 3 2 2 2 2 2 2 2 2 2 2 2 2 2 2 2 2 2 2 2 3 3 2 1 1 0 2 0 1 1 2 2 3 1 1 1 1 1 1 1 1 1
3 3 3 3 3 3 2 2 3 2 2 3 2 2 2 2 2 2 2 2 2 2 3 2 1 1 1 2 2 3 2 1 1 4 3 2 2 2 2 1 0 1 1
3 3 3 3 3 3 3 3 3 3 3 3 3 3 3 2 3 2 2 2 2 2 2 3 2 1 1 1 2 3 2 2 2 4 5 4 4 3 3 2 1 1 0
3 3 3 4 3 3 3 3 3 3 3 3 3 3 3 3 3 3 2 2 2 2 2 3 3 2 1 1 3 2 2 2 2 1 0 2 4 6 5 3 2 1 1
3 3 3 3 4 4 3 3 4 4 4 4 3 3 2 1 1 2 2 1 2 2 3 3 3 2 1 1 2 3 2 2 1 1 2 2 3 3 4 5 4 2 2
3 3 3 3 3 3 2 2 4 4 4 4 4 4 3 4 3 3 2 2 2 3 4 4 3 2 2 3 3 3 2 3 2 0 3 3 1 2 2 2 4 3 2
3 3 3 3 3 3 3 4 5 5 5 4 4 4 4 3 5 4 5 5 4 3 4 5 4 4 3 3 4 4 3 4 4 2 3 3 2 2 1 4 6 4 3
4 4 4 4 4 3 5 5 6 6 5 5 5 5 5 4 4 4 5 5 5 4 4 5 4 4 4 4 5 5 5 5 4 3 3 4 2 2 2 2 8 6 5
4 4 4 4 5 4 5 6 7 6 6 6 6 6 6 5 2 3 6 6 5 5 4 4 4 4 3 4 5 5 4 5 4 2 2 4 3 2 2 2 6 8 7
4 4 4 4 5 5 5 7 7 6 5 5 5 6 6 6 3 5 7 7 7 6 4 5 5 7 7 6 7 6 5 5 4 3 1 3 3 2 3 2 2 4 5
Wind_Direction
99 78 69 47 49 104 152 160 146 138 148 137 151 153 173 172 185 201 141 160 184 197 201 203 201 199 197 196 200 204 209 207 203 206 209 209 208 210 212 215 214 215 214
74 76 96 56 45 53 60 108 120 138 143 117 155 132 199 186 153 207 212 168 177 189 198 202 203 200 195 197 204 207 206 206 207 207 209 210 210 213 217 216 216 216 216
115 251 77 184 48 54 88 118 112 146 157 151 145 147 198 227 212 201 224 215 182 180 189 194 198 195 196 201 208 209 208 207 207 209 213 213 211 211 212 216 214 212 211
181 242 16 68 14 349 129 130 184 161 142 176 135 179 213 209 210 206 215 203 208 184 175 177 190 195 203 205 208 208 209 211 213 215 217 217 217 216 216 219 218 214 213
220 224 6 26 277 286 292 248 106 264 206 71 173 183 238 226 209 213 216 211 195 205 175 152 173 191 199 204 208 211 215 217 219 220 219 220 218 217 219 220 218 216 215
186 240 177 177 270 252 260 15 115 149 274 252 291 355 260 248 243 220 230 206 183 197 201 174 183 182 192 202 210 218 223 224 224 223 222 222 221 219 219 219 217 219 218
187 241 280 151 251 195 230 213 212 181 210 195 234 210 205 205 201 209 213 216 175 189 194 194 229 224 181 188 205 215 223 228 223 221 221 224 226 226 221 220 219 222 224
214 197 208 220 204 180 187 205 207 246 226 212 279 266 225 185 187 172 183 192 201 200 201 196 194 213 245 199 150 193 216 222 221 220 221 226 226 225 226 224 223 223 224
195 229 180 242 220 227 162 232 228 222 243 233 273 293 289 309 229 165 177 167 180 207 219 188 201 201 222 238 182 169 197 226 230 227 224 223 220 219 223 223 223 223 224
194 197 205 209 243 246 170 231 186 250 246 239 219 268 302 329 281 208 192 170 178 204 244 247 208 193 222 235 207 51 174 229 245 241 235 233 231 228 225 222 223 227 226
193 206 207 213 222 238 216 248 238 250 240 256 258 249 253 239 259 269 250 233 221 207 207 220 222 220 245 275 275 44 74 281 277 273 253 247 244 241 230 227 229 233 233
197 199 200 207 216 217 199 214 232 221 251 266 270 268 262 269 270 272 264 254 251 208 192 209 240 217 232 157 59 65 61 41 356 321 298 265 250 247 243 237 239 239 240
200 182 201 204 207 195 205 210 202 249 221 226 239 260 274 281 286 274 276 278 277 248 195 206 210 208 237 131 97 93 100 76 30 4 346 319 256 244 248 248 250 244 242
225 177 195 197 199 210 208 200 210 209 199 223 237 275 263 271 267 266 280 277 268 250 227 222 204 200 225 227 67 238 128 95 63 36 13 352 295 249 234 251 262 261 252
196 185 210 202 194 206 230 236 220 250 240 239 216 214 256 257 258 266 270 271 275 274 258 195 226 165 254 114 98 255 151 93 105 81 46 21 63 63 45 344 309 293 271
204 198 212 206 201 211 222 242 224 211 241 245 261 295 280 270 267 254 263 271 273 280 283 266 224 122 326 249 123 291 122 132 143 148 50 334 121 83 61 48 22 323 289
195 191 198 209 211 219 225 229 244 225 237 237 241 227 252 288 277 266 251 258 268 274 270 269 224 113 228 289 238 270 238 242 154 145 147 182 158 143 142 126 16 0 308
204 199 200 205 214 216 224 228 242 238 241 241 248 247 246 232 235 266 266 266 274 272 268 276 263 216 241 258 259 263 249 251 240 138 154 175 176 175 177 173 209 310 335
209 216 212 213 222 224 224 233 237 235 238 239 241 245 248 244 237 235 252 263 264 252 262 264 265 275 251 256 247 246 251 268 259 159 172 177 176 182 188 188 201 232 261
212 221 228 225 224 226 228 230 229 228 234 232 232 237 239 239 239 238 233 249 276 276 252 259 266 247 240 253 259 255 241 232 265 234 154 190 177 185 182 174 177 178 186
218 218 228 233 230 225 227 225 226 220 224 231 227 226 223 224 335 287 283 265 255 264 259 255 259 257 254 274 272 274 273 260 228 306 281 236 194 200 182 173 172 178 200
222 220 229 237 243 240 137 199 245 230 225 228 230 233 218 198 198 202 267 294 300 272 284 285 277 289 289 275 289 286 292 289 277 299 282 270 254 238 212 157 128 153 191
217 226 238 240 248 233 170 199 229 238 235 235 233 235 243 209 199 214 202 207 222 247 272 280 287 292 288 290 286 276 282 287 295 314 282 272 251 266 244 115 127 150 168
223 227 233 236 240 224 184 204 220 228 236 236 235 233 241 244 234 234 231 223 224 218 228 245 268 276 286 297 276 270 276 263 251 243 267 276 264 259 269 138 141 153 163
231 236 233 234 235 226 199 211 227 231 229 233 234 234 236 238 212 227 239 238 238 233 204 213 248 257 277 278 284 274 271 270 265 235 227 271 271 261 245 203 153 167 175
234 242 238 235 234 233 204 207 224 236 234 233 229 228 222 230 201 209 238 242 242 245 247 224 225 229 233 230 233 256 269 271 277 266 180 266 270 261 248 214 183 177 185